Regional Weather Roundup
Issued by NWS

Home | Current Version | Previous Version | Text Only | Print | Product List | Glossary On
Versions: 1 2 3 4 5 6 7 8 9 10 11 12 13 14 15 16 17 18 19 20 21 22 23 24 25 26 27 28 29 30 31 32 33 34 35 36 37 38 39 40 41 42 43 44 45 46 47 48 49 50
000
ASUS43 KLMK 161510
RWRKY
KENTUCKY REGIONAL WEATHER ROUNDUP
NATIONAL WEATHER SERVICE LOUISVILLE KY
1100 AM EDT WED AUG 16 2017

NOTE "FAIR" INDICATES FEW OR NO CLOUDS BELOW 12,000 FEET
WITH NO SIGNIFICANT WEATHER AND/OR OBSTRUCTIONS TO VISIBILITY.

KYZ001>023-026-027-061>063-070>075-161600-
WESTERN AND SOUTH CENTRAL KENTUCKY

CITY           SKY/WX    TMP DP  RH WIND       PRES   REMARKS
PADUCAH        CLOUDY    82  75  79 SW7       30.00R
HENDERSON      LGT RAIN  78  75  90 S5        30.03R
OWENSBORO      SUNNY     82  74  76 S7        30.03S
HOPKINSVILLE   SUNNY     83  76  79 S3        30.03R HX  91
BOWLING GREEN  CLOUDY    80  75  84 S8        30.06R
GLASGOW        PTSUNNY   80  72  77 W3        30.07R
$$

KYZ024-025-028>034-038-045-046-053-161600-
NORTH CENTRAL KENTUCKY

CITY           SKY/WX    TMP DP  RH WIND       PRES   REMARKS
LOUISVILLE/SDF MOSUNNY   84  69  60 S6        30.03S
LOUISVILLE/LOU SUNNY     84  70  62 VRB5      30.04R
FORT KNOX      MOSUNNY   81  71  71 S8        30.04S
$$

KYZ035>037-039>044-047>052-055>060-089>105-161600-
NORTHEAST KENTUCKY

CITY           SKY/WX    TMP DP  RH WIND       PRES   REMARKS
LEXINGTON      PTSUNNY   82  73  74 S6        30.07S
COVINGTON      MOSUNNY   84  71  65 S6        30.06R
FRANKFORT      SUNNY     83  72  69 S3        30.05R
$$

KYZ054-064>069-076>088-106>120-161600-
SOUTHEAST KENTUCKY

CITY           SKY/WX    TMP DP  RH WIND       PRES   REMARKS
JACKSON        MOSUNNY   78  73  84 CALM      30.10S
LONDON         CLOUDY    74  71  91 CALM      30.10R
SOMERSET       CLOUDY    73  73 100 S3        30.09F
MIDDLESBORO    MOSUNNY   78  73  84 CALM      30.11F
MONTICELLO     PTSUNNY   81  73  76 NW10G17   30.09F
$$




USA.gov is the U.S. government's official web portal to all federal, state and local government web resources and services.